Weather History for Alice, TX

Change the Weather History Date:

Friday, October 26, 2012

  Actual Average Record
Temperature  
Mean Temperature 65 °F -  
Max Temperature 77 °F 81 °F 93 °F (1996)
Min Temperature 53 °F 61 °F 42 °F (2005)
Growing Degree Days 15 (Base 50)    
Moisture  
Dew Point 57 °F    
Average Humidity 79    
Maximum Humidity 91    
Minimum Humidity 53    
Precipitation  
Precipitation 0.30 in - - ()
Sea Level Pressure  
Sea Level Pressure 30.04 in    
Wind  
Wind Speed 8 mph (NNE)    
Max Wind Speed 21 mph    
Max Gust Speed 29 mph    
Visibility 10 miles    
Events Rain    
Averages and records for this station are not official NWS values.
T = Trace of Precipitation, MM = Missing Value Source: NWS Daily Summary

Daily Weather History Graph

Daily Weather History Graph

Search for Another Location

Airport:

Trip Planner

Search our weather history database for the weather conditions in past years. The results will help you decide how hot, cold, wet, or windy it might be!

Date:

Astronomy

Oct. 26, 2012 Rise Set
Actual Time 7:39 AM CDT 6:52 PM CDT
Civil Twilight 7:15 AM CDT 7:16 PM CDT
Nautical Twilight 6:47 AM CDT 7:43 PM CDT
Astronomical Twilight 6:20 AM CDT 8:11 PM CDT
Moon 4:58 PM CDT (10/26) 4:49 AM CDT (10/26)
Length of Visible Light 12h 00m
Length of Day
11h 12m
Waxing Gibbous, 91% of the Moon is Illuminated
Oct 26
Waxing Gibbous
Oct 29
Full
Nov 6
Last Quarter
Nov 13
New
Nov 20
First Quarter

Hourly Weather History & Observations

Time (CDT) Temp. Dew Point Humidity Pressure Visibility Wind Dir Wind Speed Gust Speed Precip Events Conditions
12:53 AM 77.0 °F 71.1 °F 82% 29.89 in 10.0 mi Calm Calm - N/A   Overcast
1:42 AM 77.0 °F 71.6 °F 83% 29.90 in 10.0 mi Calm Calm - N/A   Overcast
1:53 AM 77.0 °F 71.1 °F 82% 29.90 in 10.0 mi Calm Calm - N/A   Overcast
2:11 AM 75.2 °F 71.6 °F 89% 29.91 in 10.0 mi Calm Calm - N/A   Mostly Cloudy
2:53 AM 75.9 °F 71.1 °F 85% 29.90 in 10.0 mi Calm Calm - N/A   Mostly Cloudy
3:53 AM 73.9 °F 70.0 °F 87% 29.89 in 10.0 mi Calm Calm - N/A   Scattered Clouds
4:53 AM 73.0 °F 70.0 °F 90% 29.89 in 10.0 mi SE 4.6 mph - N/A   Overcast
5:53 AM 73.9 °F 71.1 °F 91% 29.91 in 10.0 mi ENE 5.8 mph - N/A   Scattered Clouds
6:25 AM 71.6 °F 66.2 °F 83% 29.94 in 10.0 mi NNE 15.0 mph 25.3 mph N/A   Overcast
6:42 AM 66.2 °F 60.8 °F 83% 29.96 in 10.0 mi North 16.1 mph 25.3 mph N/A   Overcast
6:53 AM 64.9 °F 60.1 °F 84% 29.96 in 10.0 mi NNE 18.4 mph - N/A   Overcast
7:45 AM 64.4 °F 57.2 °F 77% 29.99 in 10.0 mi NNE 12.7 mph - N/A   Overcast
7:53 AM 63.0 °F 57.9 °F 84% 29.99 in 10.0 mi NNE 17.3 mph 25.3 mph N/A   Overcast
8:23 AM 60.8 °F 57.2 °F 88% 30.01 in 8.0 mi NNE 12.7 mph - 0.00 in Rain Light Rain
8:53 AM 60.1 °F 57.0 °F 90% 30.03 in 9.0 mi NNE 12.7 mph - 0.03 in Rain Light Rain
9:08 AM 60.8 °F 57.2 °F 88% 30.04 in 10.0 mi NNE 11.5 mph - 0.00 in   Overcast
9:53 AM 63.0 °F 57.9 °F 84% 30.04 in 10.0 mi NNE 13.8 mph 18.4 mph 0.00 in   Overcast
10:53 AM 64.9 °F 55.9 °F 73% 30.06 in 10.0 mi NNE 12.7 mph 19.6 mph N/A   Overcast
11:14 AM 64.4 °F 55.4 °F 73% 30.07 in 10.0 mi NNE 15.0 mph - N/A   Overcast
11:53 AM 66.9 °F 54.0 °F 63% 30.06 in 10.0 mi North 15.0 mph - N/A   Overcast
12:53 PM 66.9 °F 53.1 °F 61% 30.06 in 10.0 mi North 16.1 mph 21.9 mph N/A   Overcast
1:53 PM 69.1 °F 51.1 °F 53% 30.04 in 10.0 mi NNE 17.3 mph - N/A   Overcast
2:53 PM 66.0 °F 48.9 °F 54% 30.06 in 10.0 mi NNW 16.1 mph 26.5 mph N/A   Overcast
3:53 PM 64.0 °F 48.0 °F 56% 30.05 in 10.0 mi North 20.7 mph 28.8 mph N/A   Overcast
4:53 PM 59.0 °F 46.9 °F 64% 30.07 in 10.0 mi North 18.4 mph 25.3 mph 0.00 in Rain Light Rain
5:53 PM 54.0 °F 50.0 °F 86% 30.10 in 10.0 mi North 15.0 mph 26.5 mph 0.17 in Rain Rain
6:28 PM 53.6 °F 50.0 °F 88% 30.11 in 8.0 mi North 12.7 mph - 0.07 in Rain Rain
6:53 PM 54.0 °F 50.0 °F 86% 30.10 in 10.0 mi North 16.1 mph - 0.09 in Rain Light Rain
7:49 PM 53.6 °F 48.2 °F 82% 30.14 in 10.0 mi North 17.3 mph 21.9 mph 0.01 in   Mostly Cloudy
7:53 PM 54.0 °F 48.9 °F 83% 30.14 in 10.0 mi North 13.8 mph - 0.01 in   Mostly Cloudy
8:53 PM 55.0 °F 48.9 °F 80% 30.17 in 10.0 mi NNE 11.5 mph - N/A   Overcast
9:17 PM 55.4 °F 50.0 °F 82% 30.19 in 10.0 mi North 6.9 mph - N/A   Overcast
9:53 PM 55.0 °F 50.0 °F 83% 30.18 in 10.0 mi North 11.5 mph - N/A   Overcast
10:23 PM 55.4 °F 50.0 °F 82% 30.20 in 10.0 mi North 10.4 mph - N/A   Overcast
10:53 PM 55.9 °F 50.0 °F 80% 30.20 in 10.0 mi North 9.2 mph - N/A   Overcast
11:22 PM 55.4 °F 48.2 °F 77% 30.21 in 10.0 mi North 13.8 mph 19.6 mph N/A   Overcast
11:53 PM 55.9 °F 46.0 °F 69% 30.21 in 10.0 mi NNE 18.4 mph 23.0 mph N/A   Overcast